Timeline UpdatesTrip UpdatesNews PostsPvt PostsTravel TipsAdmin PostsConv PostsFollowed PostsChat RequestsBlog PostsPNR Posts

Disclaimer
Search
 
 
Thu Aug 28, 2014 14:37:31 ISTHomeTrainsΣChainsAtlasPNRForumGalleryNewsFAQTripsMembersLoginFeedback
No Recent News for this Train
Other Trains in the News **new
Latest...
.
Sat Feb 02, 2013 (04:10PM)
⇐ Return Journey: Train# 51187

51188/Katni - Bhusaval Passenger (UnReserved)

Oct 05 2013 (11:32PM)
Change Departure Station:
Change Arrival Station:
Post a Train Travel TipPost a Train Travel Tip **new
Post a Comment/Question/Picture/VideoPost a Comment/Question/Picture/Video
Pantry/Catering
✕ NO Pantry Car
✕ NO Catering
RSA - Rake Sharing
Rake/Coach Composition
Loco
KTE-ET: KTE/ET WDM-3A ET-BSL: BSL/ET WAP-4
News    PNR    Forum    Time-Table    Availability    Fare Chart    Map    Arr/Dep History    Trips    Gallery    ΣChains    X/O    Timeline    
Travel Time: 7h 57m    27 halts    Distance: 224 km    Avg Speed: 28 km/hr
Type: Passenger
Zone: CR/Central
Departs @ 09:03 (Avg 3h 45m late)
Platform# ???
SMTWTFS
Palasner/PAL 
Arrives @ 17:00 (Avg 3h 8m late)
Platform# 6
SMTWTFS
Bhusaval Junction/BSL 

27 halts. 28 intermediate Stations between Palasner and Bhusaval Junction

Show ALL intermediate Stations  Show Old Time-Table

#CodeStation NameX/OArrivesAvgDepartsAvgHaltPFDay#KmSpeedElevZoneAddress
1KTEKatni Junction (6)  -22:20+5051-419.031387mWCRKatni, Madhya Pradesh
2MDRRMadhavnagar Road (2)X  22:30-22:31-1m--1-413.948398mWCRMadhavnagar, Madhya Pradesh
3NWRNiwar (2)X  22:41+2:2322:42+2:281m--1-405.952412mWCRPipraundh, Madhya Pradesh
4SNRRSansarpur (2)  22:51-22:52-1m--1-398.159436mWCRNational Highway 7, Madhya Pradesh
5SBDSleemanabad Road (2)  22:59+1:4923:00+1:501m--1-391.257434mWCRSleemanabad, Madhya Pradesh
6DDCEDundi (2)  23:10+2:2623:11+2:381m--1-381.760415mWCRDundi, Madhya Pradesh
7SHRSihora Road (2)X  23:26+1:1823:28+1:212m--1-366.861388mWCRJabalpur, Madhya Pradesh
8GSPRGosalpur (2)X  23:39+2:4023:40+2:411m--1-355.757396mWCRJabalpur, Madhya Pradesh
9DOEDeori (2)  23:51+2:4023:52+2:411m--1-345.248392mWCRJabalpur, Madhya Pradesh
10ADTLAdhartal (2)X  00:03+2:1500:04+2:211m--2-336.430393mWCRJabalpur, Madhya Pradesh
11JBPJabalpur Junction (4)X  00:20+3900:30+4510m12-328.453416mWCRJabalpur, Madhya Pradesh
12MMLMadan Mahal (3)  00:34+3:2700:36+3:272m12-324.956428mWCRJabalpur, Madhya Pradesh
13BRGTBheraghat (2)X  00:50+3:1500:51+3:221m--2-311.861389mWCRBheraghat, Madhya Pradesh
14BHTNBhitoni (2)X  01:04+3:2101:05+3:371m--2-298.658377mWCRJabalpur, Madhya Pradesh
15BMRBikrampur (2)  01:17+3:3701:18+3:411m--2-287.065353mWCRBikrampur Dist Narsingpur., Madhya Pradesh
16SRIDShridham (3)XO  01:29+2:4501:31+2:512m32-275.254373mWCRShridham, Madhya Pradesh
17KKBKarak Bel (2)  01:48+3:4401:49+3:481m--2-259.829375mWCRKarak Bel, Madhya Pradesh
18BELDBelkhera (2)  01:58+3:4501:59+3:491m--2-255.533367mWCRState Highway 22, Madhya Pradesh
19GPCGhatpindrai (2)  02:09+3:4802:10+3:511m--2-250.035366mWCRGhatpindra, Madhya Pradesh
20NUNarsinghpur (2)X  02:20+2:5702:22+3:012m22-244.270365mWCRNarsimhapur, Madhya Pradesh
21KYKareli (2)X  02:36+2:4802:37+2:501m22-227.845361mWCRKareli, Madhya Pradesh
22KFYKarapgaon (2)XO  02:48-02:49-1m--2-219.545363mWCRNational Highway 26, Madhya Pradesh
23BNEBohani (2)X  02:58+3:5802:59+4:041m--2-212.778361mWCRNarsinghpur, Madhya Pradesh
24GARGadarwara (2)X  03:09+3:3103:10+3:341m22-199.856352mWCRNarsinghpur, Madhya Pradesh
25SCKRSalichauka Road (2)X  03:25+4:0803:26+4:151m--2-185.961355mWCRGadarwara, Madhya Pradesh
26JHTJunehta (2)X  03:36-03:37-1m--2-175.855353mWCRState Highway 22, Madhya Pradesh
27BKHBankhedi (2)X  03:44+4:0703:46+4:132m--2-169.467351mWCRBankheri, Madhya Pradesh
28PPIPipariya (3)X  04:03+3:0804:05+3:132m32-150.440338mWCRPiparia, Madhya Pradesh
29SXFSobhapur (2)X  04:18-04:19-1m--2-141.845338mWCRState Highway 22, Madhya Pradesh
30SGPSohagpur (2)X  04:31+4:1204:33+4:122m--2-132.743340mWCRSohagpur, Madhya Pradesh
31GMDGuramkhedi (2)  04:47+4:0804:48+4:091m--2-122.749337mWCRGuramkhedi, Madhya Pradesh
32BGTABagratawa (2)  05:04+4:0605:05+4:171m--2-109.629338mWCRBagra Tawa, Madhya Pradesh
33SQLSontalai (2)X  05:19+4:1405:20+4:151m--2-102.827329mWCRItarsi, Madhya Pradesh
34GROGurra (2)X  05:40+3:5005:41+3:521m--2-93.816327mWCRItarsi, Madhya Pradesh
35ETItarsi Junction (7)  06:20+2:4306:45+2:4425m--2-83.257329mWCRItarsi 461111, Madhya Pradesh
36DRADularia (2)  06:58+3:5706:59+4:081m--2-71.042318mWCRItarsi, Madhya Pradesh
37KTZKhutwansa (2)X  07:07-07:08-1m--2-65.349325mWCRSH 15, Madhya Pradesh
38DKIDharamkundi (2)O  07:17+4:0307:18+4:041m--2-58.031314mWCRSH 15, Madhya Pradesh
39BPFBanapura (2)  07:34+3:5607:35+4:011m--2-49.849314mWCRBanapura, Madhya Pradesh
40BIFBhaironpur (2)O  07:44+4:0007:45+4:011m--2-42.449322mWCRSH 15, Madhya Pradesh
41PGLPagdhal (2)X  07:54+4:0007:55+4:031m--2-35.141317mWCRPagdhal, Madhya Pradesh
42CGOChhidgaon (2)X  08:01-08:02-1m--2-31.026309mWCRHarda, Madhya Pradesh
43TBNTimarni (2)  08:24+4:0808:25+4:091m--2-21.547308mWCRTimarni, Madhya Pradesh
44CRKCharkhera (2)O  08:34+3:4708:35+3:541m--2-14.423298mWCRBarkalan, Madhya Pradesh
45HDHarda (3)X  08:53+4:1308:55+4:142m--2-7.464289mWCRHarda, Madhya Pradesh
46PAL»Palasner (2)»  09:02+3:4409:03+3:451m--20.039296mWCRHarda, Madhya Pradesh
47MUOMasangaon (2)XO  09:12+3:4209:13+3:431m--25.912303mWCRSH 15, Madhya Pradesh
48BRIBhiringi (2)  09:39+3:2309:40+3:311m--211.1100294mWCRSH 15, Madhya Pradesh
49KROKurawan (2)X  09:44-09:45-1m--217.829297mWCRSH 15, Madhya Pradesh
50KKNKhirkiya (2)O  09:58+3:4310:00+3:462m1224.139281mWCRSH 15, Madhya Pradesh
51DRHIDagarhkeri (2)XO  10:17+3:4110:18+3:481m--235.120274mWCRState Highway 15, Madhya Pradesh
52BRUDBarud (2)X  10:47+3:3010:48+3:451m--244.676273mWCRKhandwa, Madhya Pradesh
53CAERChhanera (2)XO  10:56+3:4810:58+3:532m--254.821283mWCRChhanera, Madhya Pradesh
54CKKDCharkheda Khurd (2)  11:17+3:4411:18+3:461m--261.623274mWCRKhandwa, Madhya Pradesh
55SGBJSurgaon Banjari (2)  11:47+3:2611:48+3:271m--272.771298mWCRKhandwa, Madhya Pradesh
56TLVTalvadiya (2)O  11:58+3:3012:00+3:392m--284.556308mWCRKhandwa, Madhya Pradesh
57MTAMathela (2)XO  12:09+3:3712:10+3:381m--292.96322mWCRKhandwa, Madhya Pradesh
58KNWKhandwa Junction (5)  13:20+2:5613:30+2:5510m--2100.244310mCRKhandwa, Madhya Pradesh
59BRGJBargaon Gujar (2)  13:37+2:4113:38+2:411m--2105.460316mCRKhandwa, Madhya Pradesh
60BMABagmar (2)X  13:44+2:4213:45+2:461m--2111.466335mCRState Highway 27, Madhya Pradesh
61KDKKohdad (2)X  13:49+3:5013:50+3:501m--2115.857344mCRState Highway 15, Madhya Pradesh
62DGNDongargaon (2)  13:58+3:5013:59+3:571m12123.358373mCRBorgaon, Madhya Pradesh
63SXASagphata (2)O  14:07+4:0014:08+4:001m--2131.151350mCRKhandwa, Madhya Pradesh
64MWAMandwa (2)X  14:15+3:5814:16+3:581m--2137.044317mCRState Highway 27, Madhya Pradesh
65NPNRNepanagar (2)  14:24+3:4614:26+3:502m--2142.953289mCRState Highway 27, Madhya Pradesh
66CDIChandni (2)  14:34+4:0814:35+4:081m--2149.977276mCRNepanagar Rd, Madhya Pradesh
67AGQAsirgarh Road (2)X  14:43+4:0814:44+4:081m--2160.267259mCRState Highway 27, Madhya Pradesh
68BAUBurhanpur (2)X  14:52+3:0714:55+3:073m12169.162269mCRBurhanpur, Madhya Pradesh
69WGAWaghoda  15:05+4:0815:06+4:091m--2179.460259mCRChorwad, Maharashtra
70RVRaver (2)X  15:16+4:0915:18+4:182m--2189.368242mCRJalgaon, Maharashtra
71NBNimbhoraX  15:27+4:1915:28+4:191m--2199.558229mCRJalgaon, Maharashtra
72SAVSavda (2)X  15:37+4:2015:38+4:241m--2208.258220mCRSavda, Maharashtra
73DSKDuskheda (2)X  15:47+4:2415:48+4:471m--2216.96213mCRDuskheda Station, Maharashtra
74BSL•Bhusaval Junction (8)•  17:00+3:08-62223.6-208mCRBhusaval 425201, Maharashtra
Scroll to Top
Scroll to Bottom